Simultaneous Nadir Overpasses (SNOs) Predictions

Prediction of SNOs between GOES-15 and LANDSAT-8 Satellite Orbit:

Table of predicted SNOs for the next 14.0 days since TLE Epoch: 8/5/2023
Index Date Time (GOES-15) GOES-15 Lat,Lon LANDSAT-8 Lat,Lon Distance(km) Time Diff (sec)
1 08/05/2023 12:03:27 0.12, 155.81 -0.57, 152.59 366.07 80
2 08/07/2023 11:48:42 0.09, 153.85 0.43, 155.47 183.65 80
3 08/08/2023 00:12:40 -0.13, 153.27 0.51, 150.28 340.08 80
4 08/09/2023 23:57:55 -0.10, 151.31 -0.52, 153.16 210.12 80
5 08/10/2023 12:22:01 0.15, 150.88 -0.48, 147.94 334.03 80
6 08/12/2023 12:07:15 0.12, 148.92 0.51, 150.83 216.42 80
7 08/13/2023 00:31:13 -0.16, 148.34 0.42, 145.64 307.20 80
8 08/15/2023 00:16:27 -0.14, 146.38 -0.59, 148.52 244.11 80
9 08/15/2023 12:40:33 0.18, 145.94 -0.39, 143.31 299.38 80
10 08/17/2023 12:25:47 0.16, 143.97 0.64, 146.19 252.80 80
11 08/18/2023 00:49:44 -0.20, 143.38 0.29, 141.00 270.44 80
